loading
|

THOR ABLESTAR DEB, 658

Orbit data source: Space-Track

THOR ABLESTAR DEB, 658 is space debris in LEO originally from a launch on Thu, 29 Jun 1961 UTC launched from the Air Force Eastern Test Range (AFETR). Debris objects in space refer to the collection of defunct objects orbiting the Earth. Examples of debris include non-operational satellites, rocket bodies, and fragments generated from explosions, collisions, or faulty payload assembly.

Loading next visibility...
Loading greatness...
THOR ABLESTAR DEB details
Identifier
658, 1961-015HK
Orbit
LEO
Last TLE update1 day ago
Origin
Flag of USUSAF SSD (US)
ManufacturerUnknown
Mission statusUnknown
MissionUnknown
Bus & MotorUnknown
MassUnknown
Launch date (UTC)
1961-06-29 (63 years ago)
Launch vehicleUnknown
Launch site
Air Force Eastern Test Range (AFETR)
Object type
Payload
Rocket body
Debris
Radar Cross SectionSmall (<0.1 m²)

Expand to show TLE details & history

TLE from 1 day ago
0 THOR ABLESTAR DEB
1 00658U 61015HK  24250.32246943 -.00000207  00000-0 -17022-3 0  9994
2 00658  65.8628 207.7731 0354570 161.9031 199.5020 13.39966812972617
Epoch: 2024-09-06T07:44Z
Definitive object data (Epoch: 2024-09-06T07:44:21.358Z)
Latitude-0.00009°
Longitude105.7874°
Altitude1,362.642 km
Speed7.056 km/s
True Right ascension13h 51m 05s
True Declination0° 00' 00"
Sunlit
Object was in daylight at TLE epoch
Predictive object data (real-time)
Latitude42.98648°
Longitude-101.95246°
Altitude881.452 km
Speed7.531 km/s
Apparent Right ascension22h 27m 45s
Apparent Declination5° 14' 56"
Sunlit
Object is in full shadow
Predictive observer data (real-time)
Local Sidereal Time08:46:56
Azimuth326.814° NNW
Elevation-39.225°
Doppler factor1
Orbital elements
Apogee1,373.373 km
Perigee842.505 km
Semi-major axis7,486.076 km
Eccentricity0.035457
Inclination65.8628°
RAAN207.7731°
Arg. of periapsis161.9031°
True anomaly198.20017°
Mean anomaly199.502°
Eccentric anomaly198.84577°
Mean motion3.3509 °/min
BSTAR-0.00017022
Period107.43 mins
No data available

THOR ABLESTAR DEB Visibility forecast

Observer location: 39.9160978°, -105.1181434

THOR ABLESTAR DEB is not visible in the next 10 days
Span
Click to sort rows by Start time (UTC) header in descending order
Start Az.
Max El. time (UTC)
Max El. Az.
Max El.
End time (UTC)
End Az.